This demonstration page uses our WeatherBlox Daily Observations layout. Learn more.

Left ArrowRight Arrow

Hourly Observations for January 7, 2018

Temp ( °F °C ) Dew Point ( °F °C ) Humidity (%) Winds ( mph kmh ) Pressure ( in mb ) Visibility ( mi km ) Precip ( " mm )
12:15 am 00:15 Clear 12 -11 0 -18 57 57 NNW 8 13 30.62 1037 10 16.0934 0 0
12:35 am 00:35 Clear 10 -12 0 -18 61 61 NW 6 9 30.62 1037 10 16.0934 0 0
12:55 am 00:55 Clear 12 -11 0 -18 57 57 NNW 8 13 30.62 1037 10 16.0934 0 0
1:15 am 01:15 Clear 10 -12 0 -18 61 61 NNW 7 11 30.62 1037 10 16.0934 0 0
1:35 am 01:35 Clear 10 -12 0 -18 61 61 NNW 6 9 30.62 1037 10 16.0934 0 0
1:55 am 01:55 Clear 12 -11 0 -18 57 57 NNW 5 7 30.62 1037 10 16.0934 0 0
2:15 am 02:15 Clear 10 -12 0 -18 61 61 NW 10 17 30.65 1038 10 16.0934 0 0
2:35 am 02:35 Clear 10 -12 0 -18 61 61 NNW 8 13 30.65 1038 10 16.0934 0 0
2:55 am 02:55 Clear 10 -12 0 -18 61 61 NNW 9 15 30.65 1038 10 16.0934 0 0
3:15 am 03:15 Clear 10 -12 0 -18 61 61 NNW 5 7 30.65 1038 10 16.0934 0 0
3:35 am 03:35 Clear 9 -13 0 -18 66 66 NW 3 6 30.65 1038 10 16.0934 0 0
3:55 am 03:55 Clear 10 -12 0 -18 61 61 Calm 30.65 1038 10 16.0934 0 0
4:15 am 04:15 Clear 5 -15 0 -18 78 78 WNW 7 11 30.65 1038 10 16.0934 0 0
4:35 am 04:35 Clear 9 -13 0 -18 66 66 NW 6 9 30.65 1038 10 16.0934 0 0
4:55 am 04:55 Clear 7 -14 0 -18 72 72 NW 5 7 30.65 1038 10 16.0934 0 0
5:15 am 05:15 Clear 9 -13 0 -18 66 66 Calm 30.65 1038 10 16.0934 0 0
5:35 am 05:35 Clear 9 -13 0 -18 66 66 NNW 6 9 30.65 1038 10 16.0934 0 0
5:55 am 05:55 Clear 5 -15 0 -18 78 78 Calm 30.65 1038 10 16.0934 0 0
6:15 am 06:15 Clear 9 -13 0 -18 66 66 Calm 30.65 1038 10 16.0934 0 0
6:35 am 06:35 Clear 3 -16 -2 -19 78 78 WNW 5 7 30.68 1039 10 16.0934 0 0
6:55 am 06:55 Clear 5 -15 0 -18 78 78 Calm 30.68 1039 10 16.0934 0 0
7:15 am 07:15 Clear 5 -15 0 -18 78 78 Calm 30.68 1039 10 16.0934 0 0
7:35 am 07:35 Sunny 1 -17 -2 -19 85 85 SW 3 6 30.68 1039 10 16.0934 0 0
7:55 am 07:55 Sunny 5 -15 0 -18 78 78 Calm 30.68 1039 10 16.0934 0 0
8:15 am 08:15 Sunny 9 -13 1 -17 72 72 Calm 30.68 1039 10 16.0934 0 0
8:35 am 08:35 Sunny 10 -12 3 -16 72 72 Calm 30.68 1039 10 16.0934 0 0
8:55 am 08:55 Sunny 12 -11 1 -17 62 62 Calm 30.68 1039 10 16.0934 0 0
9:15 am 09:15 Sunny 14 -10 1 -17 57 57 Calm 30.71 1040 10 16.0934 0 0
9:35 am 09:35 Sunny 14 -10 3 -16 62 62 WSW 3 6 30.71 1040 10 16.0934 0 0
9:55 am 09:55 Sunny 16 -9 3 -16 57 57 NW 6 9 30.71 1040 10 16.0934 0 0
10:15 am 10:15 Sunny 18 -8 1 -17 49 49 Calm 30.71 1040 10 16.0934 0 0
10:35 am 10:35 Sunny 18 -8 1 -17 49 49 NW 5 7 30.68 1039 10 16.0934 0 0
10:55 am 10:55 Sunny 19 -7 1 -17 45 45 WSW 6 9 30.68 1039 10 16.0934 0 0
11:15 am 11:15 Sunny 19 -7 1 -17 45 45 S 5 7 30.68 1039 10 16.0934 0 0
11:35 am 11:35 Sunny 21 -6 1 -17 42 42 S 8 13 30.65 1038 10 16.0934 0 0
11:55 am 11:55 Sunny 21 -6 0 -18 38 38 W 5 7 30.65 1038 10 16.0934 0 0
12:15 pm 12:15 Sunny 23 -5 1 -17 39 39 SSW 3 6 30.62 1037 10 16.0934 0 0
12:35 pm 12:35 Sunny 23 -5 1 -17 39 39 SSE 5 7 30.62 1037 10 16.0934 0 0
12:55 pm 12:55 Sunny 23 -5 1 -17 39 39 SSW 3 6 30.59 1036 10 16.0934 0 0
1:15 pm 13:15 Sunny 23 -5 0 -18 36 36 SSW 8 13 30.56 1035 10 16.0934 0 0
1:35 pm 13:35 Sunny 25 -4 0 -18 33 33 S 8 13 30.53 1034 10 16.0934 0 0
1:55 pm 13:55 Sunny 25 -4 0 -18 33 33 SSW 7 11 30.53 1034 10 16.0934 0 0
2:15 pm 14:15 Sunny 25 -4 0 -18 33 33 S 7 11 30.53 1034 10 16.0934 0 0
2:35 pm 14:35 Sunny 27 -3 0 -18 31 31 S 7 11 30.53 1034 10 16.0934 0 0
2:55 pm 14:55 Sunny 27 -3 0 -18 31 31 S 5 7 30.53 1034 10 16.0934 0 0
3:15 pm 15:15 Sunny 27 -3 0 -18 31 31 SSW 7 11 30.53 1034 10 16.0934 0 0
3:35 pm 15:35 Sunny 27 -3 0 -18 31 31 SSW 10 17 30.53 1034 10 16.0934 0 0
3:55 pm 15:55 Sunny 27 -3 0 -18 31 31 SSW 10 17 30.53 1034 10 16.0934 0 0
4:15 pm 16:15 Sunny 27 -3 0 -18 31 31 S 10 17 30.53 1034 10 16.0934 0 0
4:35 pm 16:35 Sunny 27 -3 0 -18 31 31 S 8 13 30.5 1033 10 16.0934 0 0
4:55 pm 16:55 Sunny 27 -3 0 -18 31 31 S 10 17 30.53 1034 10 16.0934 0 0
5:15 pm 17:15 Clear 25 -4 0 -18 33 33 S 7 11 30.53 1034 10 16.0934 0 0
5:35 pm 17:35 Clear 25 -4 1 -17 36 36 S 7 11 30.5 1033 10 16.0934 0 0
5:55 pm 17:55 Clear 25 -4 1 -17 36 36 S 8 13 30.53 1034 10 16.0934 0 0
6:15 pm 18:15 Clear 23 -5 1 -17 39 39 S 7 11 30.53 1034 10 16.0934 0 0
6:35 pm 18:35 Clear 25 -4 1 -17 36 36 S 8 13 30.5 1033 10 16.0934 0 0
6:55 pm 18:55 Mostly Cloudy 23 -5 1 -17 39 39 S 8 13 30.53 1034 10 16.0934 0 0
7:15 pm 19:15 Cloudy 23 -5 1 -17 39 39 S 6 9 30.53 1034 10 16.0934 0 0
7:35 pm 19:35 Cloudy 23 -5 1 -17 39 39 S 8 13 30.5 1033 10 16.0934 0 0
7:55 pm 19:55 Mostly Cloudy 23 -5 1 -17 39 39 S 9 15 30.5 1033 10 16.0934 0 0
8:15 pm 20:15 Partly Cloudy 21 -6 1 -17 42 42 S 9 15 30.5 1033 10 16.0934 0 0
8:35 pm 20:35 Partly Cloudy 21 -6 1 -17 42 42 S 7 11 30.5 1033 10 16.0934 0 0
8:55 pm 20:55 Mostly Cloudy 21 -6 1 -17 42 42 S 8 13 30.48 1032 10 16.0934 0 0
9:15 pm 21:15 Partly Cloudy 21 -6 1 -17 42 42 S 8 13 30.48 1032 10 16.0934 0 0
9:35 pm 21:35 Mostly Cloudy 21 -6 1 -17 42 42 S 8 13 30.48 1032 10 16.0934 0 0
9:55 pm 21:55 Cloudy 21 -6 3 -16 45 45 S 8 13 30.48 1032 10 16.0934 0 0
10:15 pm 22:15 Partly Cloudy 21 -6 3 -16 45 45 S 7 11 30.48 1032 10 16.0934 0 0
10:35 pm 22:35 Mostly Cloudy 21 -6 3 -16 45 45 S 9 15 30.48 1032 10 16.0934 0 0
10:55 pm 22:55 Mostly Cloudy 21 -6 3 -16 45 45 S 9 15 30.45 1031 10 16.0934 0 0
11:15 pm 23:15 Partly Cloudy 21 -6 3 -16 45 45 S 7 11 30.45 1031 10 16.0934 0 0
11:35 pm 23:35 Mostly Cloudy 21 -6 3 -16 45 45 S 6 9 30.45 1031 10 16.0934 0 0
11:55 pm 23:55 Partly Cloudy 19 -7 3 -16 49 49 S 8 13 30.42 1030 10 16.0934 0 0

Powered by AerisWeather